Showing default

DUMMY SAT 3/ORION, 59479

Orbit data source: Space-Track

DUMMY SAT 3/ORION, 59479 is a payload satellite owned by Khrunichev (CIS) in GEO that was launched on Thu, 11 Apr 2024 UTC via an ANGARA A5/ORION launch vehicle from the Vostochny Cosmodrome (VOSTO). Payloads include a variety of satellites, spacecraft, and rockets equipped with specific instruments for various scientific and technological missions. These include communications satellites like Starlink; space stations such as the ISS; scientific satellites like the Hubble; Earth observation satellites from companies like Planet Labs, Umbra, and HawkEye 360; GPS; miniature CubeSats for education and research; and military/defense satellites.

Not visible in the next 10 days
DUMMY SAT 3/ORION details
Identifier
59479, 2024-069A
Orbit
GEO
Last TLE update17 hours ago
Origin
Flag of CISKhrunichev (CIS)
ManufacturerKhrunichev
MissionOperational spacecraft
Bus & MotorGVM, Unknown motor
Mass~20,000 kg wet, 2,400 kg dry
Launch date (UTC)
2024-04-11 (10 months ago)
Launch vehicle
ANGARA A5/ORION
Launch site
Vostochny Cosmodrome (VOSTO)
Object type
Payload
Rocket body
Debris
Shape & HBRUnknown
Radar Cross SectionRCS unknown

Expand to show TLE details & history

TLE from 17 hours ago
0 DUMMY SAT 3/ORION
1 59479U 24069A   25025.12617851 -.00000116  00000-0  00000-0 0  9999
2 59479   0.7895  86.9292 0049808 119.2879 153.5168  0.98608535  2800
Epoch: 2025-01-25T03:01Z
Definitive object data (Epoch: 2025-01-25T03:01:41.823Z)
Latitude-0.807°
Longitude-170.10343°
Altitude36,448.503 km
Speed3.044 km/s
True Right ascension00h 00m 00s
True Declination0° 48' 22"
Sunlit
Object was in daylight at TLE epoch
Visualization TLE readout
Latitude0.22878°
Longitude79.66949°
Altitude36,105.225 km
Speed3.069 km/s
Apparent Right ascension16h 13m 27s
Apparent Declination-5° 26' 14"
Sunlit
Object is in daylight
Visualization observer readout
Local Sidereal Time21:15:18
Azimuth256.406° W
Elevation7.519°
Doppler factor1
Orbital elements
Apogee altitude36,472.839 km
Perigee altitude36,048.09 km
Semi-major axis42,638.602 km
Eccentricity0.0049808
Inclination0.7895°
RAAN86.9292°
Arg. of periapsis119.2879°
True anomaly153.76991°
Mean anomaly153.5168°
Eccentric anomaly153.6435°
Mean motion0.24651 °/min
BSTARUnknown
Orbital period1460.37 mins
Loading historical data...
59479 neighbors
Authenticating...
Loading maneuver chart data...
Loading historical data...
Loading historical data...
Loading historical data...
Loading historical data...
Loading historical data...
Loading historical data...
Loading historical data...

DUMMY SAT 3/ORION Visibility forecast

Observer location: undefined°, undefined

DUMMY SAT 3/ORION is not visible in the next 10 days
Span
Click to sort rows by Start time (UTC) header in descending order
Start Az.
Max El. time (UTC)
Max El. Az.
Max El.
End time (UTC)
End Az.
|